STARLINK-5787 (56004 NORAD) Tracking and Keplerian Element Data

This shows tracking and keplerian element data for the satellite.

Feedback or suggestion? Click here.




ElementValue
Catalog56004
NameSTARLINK-5787
Epoch Orbit712
Epoch Day127.00001157
Epoch Year2023
RAAN297.5304
Inclination43.0004
Eccentricity0.0001486
Argument of Perigee275.1798
Mean Anonmoly341.8489
Mean Motion15.37598551
Decay Rate-0.00922532
L11 56004U 23042U 23127.00001157 -.00922532 00000+0 -26673-1 0 9994
L22 56004 43.0004 297.5304 0001486 275.1798 341.8489 15.37598551 7122



Live tracking and technical data element details for STARLINK-5787 (NORAD 56004). STARLINK-5787 can be tracked NOW for your location showing map with azimuth and elevation plus other details from your city location.







IsCatalogInMostPopularTable: catalog: 56004, numindb: 1
Update: records affected: 1



GetName: 56004 STARLINK-5787

Hit Count: updated at: Sat, 03 Jun 2023 18:36:46 GMT